Location: Bronnegerveen
(52.9548°N, 6.8388°E)
Time: 01:53:49
(UTC+00:00)

Cosmos 2278 Rocket - Pass Details

Date: 15 June 2025
Orbit: 838 x 846 km, 71.0° (Epoch: 07 July)

Event Time Altitude Azimuth Distance (km) Brightness Sun altitude
Exits shadow 01:53:00 10° 210° (SSW) 2,485 3.9 -7.9°
Reaches altitude 10° 01:53:05 10° 210° (SSW) 2,455 3.9 -7.9°
Maximum altitude 01:58:44 89° 296° (WNW) 851 2.3 -7.4°
Drops below altitude 10° 02:04:26 10° 32° (NNE) 2,476 6.5 -7.0°
Sets 02:06:54 0° 32° (NNE) 3,416 8.1 -6.7°
